"Pseudo-MPEC" for P10Hil9

Created 2018 Apr 23 3:18:04 UT using Find_Orb

Click here for an explanation of pseudo-MPECs

 
 Astrometry: 
     P10Hil9  C2018 04 12M1Astrometry77Fe%%-Z:*#il5Z1HkSg4i*4L/`Tj3e[$eF]D-=_F51
     P10Hil9  C2018 04 127tN]/bI1TyhF]Lm7Oredacted;Er-1rkUYbnq7v._W294e[ZH^`oF51
     P10Hil9  C2018 04 12g,*fX7Q*(-dEU5\RC\7!n*5YeI\#/Q$Psee8b=JyHU\Us'e.==+yF51
     P10Hil9  C2018 04 12.,Hlu[WDq5.#m^;UUeT$tj3GKxUhoaB#GjoC%'AQpOTchoCNEOCPF51
     P10Hil9 ^C2018 04 13.39940 14 22 15.882-11 21 06.94         19.2 GUNEOCP568
     P10Hil9 ^C2018 04 13.40163 14 22 22.467-11 20 15.35         19.4 GUNEOCP568

Station data:
(568) Mauna Kea  (N19.826116 W155.472200)  US/Hawaii.  Observer D. J. Tholen.
   2.24-m University of Hawaii reflector.
(F51) Pan-STARRS 1, Haleakala  (N20.707235 W156.255910)  US/Hawaii.
   Observers N. Primak, A. Schultz, S. Watters, J. Thiel, T. Goggia. Measurer
   PS1 Science Consortium. 1.8-m Ritchey-Chrétien + CCD.

Orbital elements:  P10Hil9
   Perihelion 2018 Jun 7.062650 +/- 0.262 TT =  1:30:12 (JD 2458276.562650)
Epoch 2018 Apr 13.0 TT = JDT 2458221.5   Earth MOID: 0.0039   Ma: 0.0516
M 325.38324 +/- 0.6                 (J2000 ecliptic)          AutoNEOCP
n   0.62867942 +/- 0.00892          Peri.   77.04858 +/- 0.12
a   1.34953210 +/- 0.0128           Node   203.01818 +/- 0.0028
e   0.4191051 +/- 0.00811           Incl.    6.34527 +/- 0.09
P   1.57/572.62d           H 28.5   G  0.15   U  9.6  
q 0.78393631 +/- 0.00358    Q 1.91512788 +/- 0.0292
From 6 observations 2018 Apr. 12-13 (23.2 hr); mean residual 0".10
Residuals in arcseconds: 
180412 F51  .10+  .09+    180412 F51  .17-  .14-    180413 568  .10+  .06+    
180412 F51  .07-  .02-    180412 F51  .14+  .07+    180413 568  .10-  .06-    

Ephemerides (geocentric):
Date (UTC) HH   RA              Dec         delta   r     elong  mag " sig PA
---- -- -- --  ------------   ------------  ------ ------ -----  --- ---- ---
2018 04 23 03  00 22 50.854   +23 07 33.76  .05998 .95175  25.8 31??  361 108
2018 04 23 04  00 22 57.957   +23 07 01.07  .06029 .95149  25.8 31??  360 108
2018 04 23 05  00 23 04.997   +23 06 28.65  .06060 .95123  25.8 31??  359 108
2018 04 23 06  00 23 11.974   +23 05 56.48  .06090 .95097  25.8 31??  358 108
2018 04 23 07  00 23 18.889   +23 05 24.55  .06121 .95071  25.8 31??  357 108
2018 04 23 08  00 23 25.742   +23 04 52.88  .06151 .95045  25.8 31??  357 108
2018 04 23 09  00 23 32.536   +23 04 21.45  .06182 .95019  25.8 31??  356 108
2018 04 23 10  00 23 39.270   +23 03 50.27  .06213 .94993  25.8 31??  355 108
2018 04 23 11  00 23 45.946   +23 03 19.32  .06243 .94967  25.8 31??  354 108
2018 04 23 12  00 23 52.565   +23 02 48.60  .06274 .94941  25.8 31??  354 108
2018 04 23 13  00 23 59.127   +23 02 18.11  .06305 .94915  25.8 31??  353 108
2018 04 23 14  00 24 05.633   +23 01 47.85  .06335 .94889  25.8 31??  352 108
2018 04 23 15  00 24 12.085   +23 01 17.82  .06366 .94863  25.8 31??  351 108
2018 04 23 16  00 24 18.483   +23 00 48.01  .06397 .94837  25.9 31??  351 108
2018 04 23 17  00 24 24.828   +23 00 18.41  .06427 .94810  25.9 31??  350 108
2018 04 23 18  00 24 31.121   +22 59 49.03  .06458 .94784  25.9 31??  349 108
2018 04 23 19  00 24 37.362   +22 59 19.87  .06489 .94759  25.9 31??  349 108
2018 04 23 20  00 24 43.553   +22 58 50.91  .06519 .94733  25.9 31??  348 108
2018 04 23 21  00 24 49.693   +22 58 22.16  .06550 .94707  25.9 31??  347 108
2018 04 23 22  00 24 55.785   +22 57 53.61  .06581 .94681  25.9 31??  347 108
2018 04 23 23  00 25 01.828   +22 57 25.26  .06612 .94655  25.9 31??  346 108
2018 04 24 00  00 25 07.823   +22 56 57.11  .06642 .94629  25.9 31??  345 108
2018 04 24 01  00 25 13.772   +22 56 29.16  .06673 .94603  25.9 31??  345 108
2018 04 24 02  00 25 19.674   +22 56 01.40  .06704 .94577  25.9 31??  344 108
2018 04 24 03  00 25 25.530   +22 55 33.83  .06734 .94551  25.9 31??  343 108
2018 04 24 04  00 25 31.342   +22 55 06.45  .06765 .94525  25.9 31??  343 108
2018 04 24 05  00 25 37.109   +22 54 39.26  .06796 .94499  25.9 31??  342 108
2018 04 24 06  00 25 42.833   +22 54 12.24  .06827 .94473  25.9 31??  341 108
2018 04 24 07  00 25 48.514   +22 53 45.41  .06857 .94447  25.9 31??  341 108
2018 04 24 08  00 25 54.152   +22 53 18.76  .06888 .94422  25.9 31??  340 108
2018 04 24 09  00 25 59.748   +22 52 52.28  .06919 .94396  25.9 31??  340 108
2018 04 24 10  00 26 05.304   +22 52 25.98  .06950 .94370  25.9 31??  339 108
2018 04 24 11  00 26 10.819   +22 51 59.85  .06981 .94344  25.9 31??  338 108
2018 04 24 12  00 26 16.294   +22 51 33.89  .07011 .94318  25.9 31??  338 108
2018 04 24 13  00 26 21.729   +22 51 08.10  .07042 .94292  25.9 31??  337 108
2018 04 24 14  00 26 27.126   +22 50 42.47  .07073 .94267  25.9 31??  337 108
2018 04 24 15  00 26 32.485   +22 50 17.00  .07104 .94241  26.0 31??  336 108
2018 04 24 16  00 26 37.805   +22 49 51.70  .07135 .94215  26.0 31??  336 108
2018 04 24 17  00 26 43.089   +22 49 26.55  .07166 .94189  26.0 31??  335 108
2018 04 24 18  00 26 48.336   +22 49 01.57  .07196 .94163  26.0 31??  335 108
2018 04 24 19  00 26 53.547   +22 48 36.73  .07227 .94138  26.0 31??  334 108
2018 04 24 20  00 26 58.722   +22 48 12.05  .07258 .94112  26.0 31??  333 109
2018 04 24 21  00 27 03.862   +22 47 47.53  .07289 .94086  26.0 31??  333 109
2018 04 24 22  00 27 08.968   +22 47 23.15  .07320 .94061  26.0 31??  332 109
2018 04 24 23  00 27 14.039   +22 46 58.92  .07351 .94035  26.0 31??  332 109
2018 04 25 00  00 27 19.077   +22 46 34.83  .07382 .94009  26.0 31??  331 109
2018 04 25 01  00 27 24.081   +22 46 10.90  .07412 .93983  26.0 31??  331 109
2018 04 25 02  00 27 29.053   +22 45 47.10  .07443 .93958  26.0 31??  330 109